Previsão horária em Barstow Heights

Hoje, 29 Outubro, Quinta-feira

Tempo Temperatura Precipitação Vento Pressão Humidade
00:00 +12°C° 0 mm 1 m/s 694 mmHg 40%
01:00 +11°C° 0 mm 1 m/s 694 mmHg 40%
02:00 +11°C° 0 mm 1 m/s 694 mmHg 42%
03:00 +9°C° 0 mm 0 m/s 694 mmHg 44%
04:00 +9°C° 0 mm 0 m/s 694 mmHg 47%
05:00 +10°C° 0 mm 0 m/s 694 mmHg 38%
06:00 +11°C° 0 mm 0 m/s 695 mmHg 30%
07:00 +12°C° 0 mm 0 m/s 696 mmHg 22%
08:00 +16°C° 0 mm 0 m/s 696 mmHg 18%
09:00 +21°C° 0 mm 1 m/s 697 mmHg 14%
10:00 +25°C° 0 mm 2 m/s 698 mmHg 10%
11:00 +26°C° 0 mm 2 m/s 697 mmHg 9%
12:00 +27°C° 0 mm 3 m/s 697 mmHg 9%
13:00 +28°C° 0 mm 3 m/s 697 mmHg 8%
14:00 +27°C° 0 mm 3 m/s 696 mmHg 8%
15:00 +27°C° 0 mm 3 m/s 696 mmHg 9%
16:00 +26°C° 0 mm 3 m/s 695 mmHg 9%
17:00 +23°C° 0 mm 2 m/s 695 mmHg 17%
18:00 +18°C° 0 mm 2 m/s 695 mmHg 25%
19:00 +15°C° 0 mm 1 m/s 694 mmHg 33%
20:00 +14°C° 0 mm 1 m/s 694 mmHg 35%
21:00 +12°C° 0 mm 0 m/s 694 mmHg 38%
22:00 +12°C° 0 mm 0 m/s 694 mmHg 41%
23:00 +11°C° 0 mm 0 m/s 694 mmHg 43%

Amanhã, 30 Outubro, Sexta-feira

Tempo Temperatura Precipitação Vento Pressão Humidade
00:00 +11°C° 0 mm 0 m/s 694 mmHg 44%
01:00 +11°C° 0 mm 0 m/s 693 mmHg 45%
02:00 +10°C° 0 mm 0 m/s 693 mmHg 46%
03:00 +10°C° 0 mm 0 m/s 693 mmHg 46%
04:00 +10°C° 0 mm 0 m/s 693 mmHg 47%
05:00 +11°C° 0 mm 0 m/s 694 mmHg 38%
06:00 +12°C° 0 mm 0 m/s 694 mmHg 29%
07:00 +13°C° 0 mm 0 m/s 694 mmHg 21%
08:00 +16°C° 0 mm 0 m/s 695 mmHg 17%
09:00 +20°C° 0 mm 0 m/s 696 mmHg 14%
10:00 +25°C° 0 mm 1 m/s 697 mmHg 10%
11:00 +26°C° 0 mm 1 m/s 696 mmHg 9%
12:00 +27°C° 0 mm 1 m/s 696 mmHg 9%
13:00 +28°C° 0 mm 2 m/s 695 mmHg 8%
14:00 +28°C° 0 mm 2 m/s 695 mmHg 9%
15:00 +27°C° 0 mm 2 m/s 695 mmHg 9%
16:00 +27°C° 0 mm 1 m/s 694 mmHg 10%
17:00 +23°C° 0 mm 1 m/s 694 mmHg 20%
18:00 +17°C° 0 mm 0 m/s 693 mmHg 31%
19:00 +14°C° 0 mm 0 m/s 693 mmHg 42%
20:00 +13°C° 0 mm 0 m/s 693 mmHg 42%
21:00 +13°C° 0 mm 0 m/s 693 mmHg 42%
22:00 +14°C° 0 mm 1 m/s 694 mmHg 42%
23:00 +13°C° 0 mm 1 m/s 693 mmHg 41%

Depois de amanhã, 31 Outubro, Sábado

Tempo Temperatura Precipitação Vento Pressão Humidade
00:00 +13°C° 0 mm 1 m/s 693 mmHg 41%
01:00 +12°C° 0 mm 1 m/s 693 mmHg 41%
02:00 +12°C° 0 mm 1 m/s 693 mmHg 43%
03:00 +11°C° 0 mm 1 m/s 693 mmHg 46%
04:00 +11°C° 0 mm 1 m/s 693 mmHg 48%
05:00 +12°C° 0 mm 1 m/s 693 mmHg 39%
06:00 +13°C° 0 mm 1 m/s 694 mmHg 30%
07:00 +14°C° 0 mm 1 m/s 694 mmHg 21%
08:00 +18°C° 0 mm 1 m/s 695 mmHg 17%
09:00 +22°C° 0 mm 1 m/s 696 mmHg 14%
10:00 +26°C° 0 mm 1 m/s 697 mmHg 10%
11:00 +27°C° 0 mm 1 m/s 697 mmHg 9%
12:00 +28°C° 0 mm 2 m/s 697 mmHg 8%
13:00 +29°C° 0 mm 2 m/s 697 mmHg 6%
14:00 +29°C° 0 mm 2 m/s 696 mmHg 7%
15:00 +28°C° 0 mm 2 m/s 696 mmHg 7%
16:00 +28°C° 0 mm 3 m/s 696 mmHg 7%
17:00 +24°C° 0 mm 2 m/s 696 mmHg 16%
18:00 +20°C° 0 mm 1 m/s 695 mmHg 26%
19:00 +16°C° 0 mm 1 m/s 695 mmHg 35%
20:00 +15°C° 0 mm 1 m/s 695 mmHg 37%
21:00 +14°C° 0 mm 0 m/s 695 mmHg 39%
22:00 +13°C° 0 mm 0 m/s 695 mmHg 41%
23:00 +13°C° 0 mm 0 m/s 695 mmHg 41%

1 Novembro, Domingo

Tempo Temperatura Precipitação Vento Pressão Humidade
00:00 +12°C° 0 mm 0 m/s 695 mmHg 41%
01:00 +12°C° 0 mm 0 m/s 695 mmHg 42%
02:00 +12°C° 0 mm 0 m/s 695 mmHg 42%
03:00 +11°C° 0 mm 0 m/s 695 mmHg 42%
04:00 +11°C° 0 mm 0 m/s 695 mmHg 43%
05:00 +12°C° 0 mm 0 m/s 696 mmHg 33%
06:00 +13°C° 0 mm 0 m/s 696 mmHg 24%
07:00 +14°C° 0 mm 0 m/s 697 mmHg 15%
08:00 +20°C° 0 mm 1 m/s 698 mmHg 12%
09:00 +24°C° 0 mm 1 m/s 699 mmHg 9%
10:00 +27°C° 0 mm 2 m/s 700 mmHg 7%
11:00 +28°C° 0 mm 2 m/s 699 mmHg 6%
12:00 +29°C° 0 mm 3 m/s 699 mmHg 6%
13:00 +30°C° 0 mm 4 m/s 699 mmHg 6%
14:00 +29°C° 0 mm 4 m/s 699 mmHg 7%
15:00 +29°C° 0 mm 4 m/s 698 mmHg 7%
16:00 +28°C° 0 mm 3 m/s 698 mmHg 8%
17:00 +25°C° 0 mm 3 m/s 698 mmHg 10%
18:00 +21°C° 0 mm 2 m/s 697 mmHg 13%
19:00 +18°C° 0 mm 2 m/s 697 mmHg 15%
20:00 +18°C° 0 mm 1 m/s 697 mmHg 18%
21:00 +16°C° 0 mm 1 m/s 697 mmHg 22%
22:00 +15°C° 0 mm 0 m/s 697 mmHg 25%
23:00 +14°C° 0 mm 0 m/s 697 mmHg 28%

2 Novembro, Segunda-feira

Tempo Temperatura Precipitação Vento Pressão Humidade
00:00 +14°C° 0 mm 0 m/s 697 mmHg 30%
01:00 +13°C° 0 mm 0 m/s 696 mmHg 33%
02:00 +13°C° 0 mm 0 m/s 696 mmHg 34%
03:00 +13°C° 0 mm 0 m/s 696 mmHg 35%
04:00 +12°C° 0 mm 0 m/s 696 mmHg 36%
05:00 +13°C° 0 mm 0 m/s 696 mmHg 29%
06:00 +14°C° 0 mm 0 m/s 697 mmHg 22%
07:00 +15°C° 0 mm 0 m/s 697 mmHg 16%
08:00 +19°C° 0 mm 0 m/s 698 mmHg 13%
09:00 +24°C° 0 mm 1 m/s 698 mmHg 11%
10:00 +27°C° 0 mm 1 m/s 699 mmHg 8%
11:00 +28°C° 0 mm 2 m/s 698 mmHg 8%
12:00 +29°C° 0 mm 2 m/s 698 mmHg 9%
13:00 +30°C° 0 mm 3 m/s 698 mmHg 9%
14:00 +29°C° 0 mm 3 m/s 697 mmHg 10%
15:00 +29°C° 0 mm 3 m/s 697 mmHg 10%
16:00 +28°C° 0 mm 3 m/s 696 mmHg 11%
17:00 +25°C° 0 mm 2 m/s 696 mmHg 16%
18:00 +22°C° 0 mm 1 m/s 695 mmHg 21%
19:00 +19°C° 0 mm 1 m/s 695 mmHg 26%
20:00 +18°C° 0 mm 1 m/s 695 mmHg 29%
21:00 +18°C° 0 mm 1 m/s 695 mmHg 31%
22:00 +16°C° 0 mm 1 m/s 695 mmHg 34%
23:00 +15°C° 0 mm 0 m/s 694 mmHg 37%

3 Novembro, Terça-feira

Tempo Temperatura Precipitação Vento Pressão Humidade
00:00 +14°C° 0 mm 0 m/s 694 mmHg 40%
01:00 +14°C° 0 mm 0 m/s 694 mmHg 43%
02:00 +13°C° 0 mm 0 m/s 694 mmHg 44%
03:00 +13°C° 0 mm 0 m/s 694 mmHg 46%
04:00 +13°C° 0 mm 0 m/s 694 mmHg 48%
05:00 +14°C° 0 mm 0 m/s 694 mmHg 41%
06:00 +15°C° 0 mm 0 m/s 694 mmHg 35%
07:00 +15°C° 0 mm 0 m/s 695 mmHg 28%
08:00 +19°C° 0 mm 0 m/s 695 mmHg 24%
09:00 +22°C° 0 mm 0 m/s 696 mmHg 20%
10:00 +25°C° 0 mm 0 m/s 697 mmHg 16%
11:00 +28°C° 0 mm 1 m/s 697 mmHg 16%
12:00 +29°C° 0 mm 1 m/s 696 mmHg 17%
13:00 +30°C° 0 mm 1 m/s 696 mmHg 17%
14:00 +29°C° 0 mm 1 m/s 696 mmHg 17%
15:00 +29°C° 0 mm 1 m/s 695 mmHg 18%
16:00 +29°C° 0 mm 1 m/s 695 mmHg 19%
17:00 +25°C° 0 mm 1 m/s 695 mmHg 29%
18:00 +22°C° 0 mm 1 m/s 695 mmHg 39%
19:00 +17°C° 0 mm 0 m/s 694 mmHg 49%
20:00 +18°C° 0 mm 1 m/s 694 mmHg 44%
21:00 +18°C° 0 mm 1 m/s 695 mmHg 39%
22:00 +18°C° 0 mm 1 m/s 695 mmHg 33%
23:00 +16°C° 0 mm 1 m/s 695 mmHg 34%
Mostrar mais